Volver al catálogo

THORAD AGENA D DEB

ActivoLEO
NORAD 6014·DEBRIS·🇺🇸 United States

Lanzado Apr 8, 1970 desde Vandenberg Space Force Base

Loading…

Próximos Pases (próximas 24 horas)

TLE

ActualizadoSource: Space-Track

Época: Sep 14, 2026, 14:07 UTC

1 06014U 70025MR  26257.58844061  .00002083  00000-0  12964-2 0  9990
2 06014 100.0322  31.5580 0052516 260.3688  99.1541 14.05589587831604

Sigue THORAD AGENA D DEB en tiempo real con AllMySat

Download on the App Store